CAPE
0 0 0 0 0 0 0 0 0 0 0 0 0 0 0 0 0 0 0 0 0 0 0 0 0 0 0 0 0 0 0 0 0 42 0 0 0 0 0 0 0 0 0 0 0 0 0
0 0 0 0 0 0 0 0 1 1 1 0 0 0 0 0 0 0 0 0 0 0 0 0 0 0 0 0 0 0 0 0 0 0 0 0 0 0 0 0 0 0 0 0 0 0 0
0 0 0 0 0 1 1 1 1 1 1 1 0 0 0 0 0 0 0 0 0 0 0 0 0 0 0 0 0 0 0 0 0 0 0 0 0 0 0 0 0 0 0 0 0 0 0
0 0 0 0 0 0 0 0 0 1 1 1 1 0 0 0 0 0 0 0 0 0 0 0 0 0 0 0 0 0 0 0 0 0 0 0 0 0 0 0 0 0 0 0 0 0 0
0 0 0 0 0 0 0 1 0 0 1 1 1 0 0 0 0 0 0 0 0 0 0 0 0 0 0 0 0 0 0 0 0 0 0 0 0 0 0 0 0 0 0 0 0 0 0
0 0 0 0 0 0 1 1 0 0 0 0 0 0 0 0 0 0 0 0 0 0 0 0 0 0 0 0 0 0 0 0 0 0 0 0 0 0 0 0 0 0 0 0 0 0 0
0 0 0 0 0 0 0 0 0 0 0 0 0 0 0 0 0 0 0 0 0 0 0 0 0 0 0 0 0 0 0 0 0 0 0 0 0 0 0 0 0 0 0 0 0 0 0
0 0 0 0 0 0 0 0 0 0 0 0 0 0 0 0 0 0 0 0 0 0 0 0 0 0 0 0 0 0 0 0 0 0 0 0 0 0 0 0 0 0 0 0 0 0 0
0 0 0 0 0 0 0 0 0 0 0 0 0 0 0 0 0 0 0 0 0 0 0 0 0 0 0 0 0 0 0 0 0 0 0 0 0 0 0 0 0 0 0 0 0 0 0
0 0 0 0 0 0 0 0 0 0 0 0 0 0 0 0 0 0 0 0 0 0 0 0 0 0 0 0 0 0 0 0 0 0 0 0 0 0 0 0 0 0 0 0 0 0 0
0 0 0 0 0 0 0 0 0 0 0 0 0 0 0 0 0 0 0 0 0 0 0 0 0 0 0 0 0 0 0 0 0 0 0 0 0 0 0 0 0 0 0 0 0 0 0
0 0 0 0 0 0 0 0 0 0 0 0 0 0 0 0 0 0 0 0 0 0 0 0 0 0 0 0 0 0 0 0 0 0 0 0 0 0 0 0 0 0 0 0 0 0 0
0 0 0 0 0 0 0 0 0 0 0 0 0 0 0 0 0 0 0 0 0 0 0 0 0 0 0 0 0 0 0 0 0 0 0 0 0 0 0 0 0 0 0 0 0 0 0
0 0 0 0 0 0 0 0 0 0 0 0 0 0 0 0 0 0 0 0 0 0 0 0 0 0 0 0 0 0 0 0 0 0 0 0 0 0 0 0 0 0 0 0 0 4 17
0 0 0 0 0 0 0 0 0 0 0 0 0 0 0 0 0 0 0 0 0 0 0 0 0 0 0 0 0 0 0 0 0 0 0 0 0 0 0 0 0 0 0 0 0 7 10
0 0 0 0 0 0 0 0 0 0 0 0 0 0 0 0 0 0 0 0 0 0 0 0 0 0 0 0 0 0 0 0 0 0 0 0 0 0 0 0 0 0 1 0 0 20 18
0 0 0 0 0 0 0 0 0 0 0 0 0 0 0 0 0 0 0 0 0 0 0 0 0 0 0 0 0 0 0 0 0 0 0 0 0 0 0 0 6 21 54 13 32 145 102
0 0 0 0 0 0 0 0 0 0 0 0 0 0 0 0 0 0 0 0 0 0 0 0 0 0 0 0 0 0 0 0 0 0 0 0 0 0 0 0 0 26 62 41 180 57 7
0 0 0 0 0 0 0 0 0 0 0 0 0 0 0 0 0 0 0 0 0 0 0 0 0 0 0 0 0 0 0 0 0 0 0 0 0 0 0 3 5 2 4 0 152 134 161
1 0 0 0 0 0 0 0 0 0 0 0 0 0 0 0 0 0 0 0 0 0 0 0 0 0 0 0 0 0 0 0 0 0 0 0 0 0 0 0 0 0 0 66 74 101 152
2 1 0 0 0 0 0 0 0 0 0 0 0 0 0 0 0 0 0 0 0 0 0 0 0 0 0 0 0 0 0 0 0 0 0 0 0 3 4 2 0 12 14 19 53 66 63
1 2 1 0 0 0 0 0 0 0 0 0 0 0 0 0 0 0 0 0 0 0 0 0 0 0 0 0 0 0 0 0 0 0 0 0 0 0 2 0 0 0 9 19 61 21 268
0 1 1 1 0 0 0 0 0 0 0 0 0 0 0 0 0 0 0 0 0 0 0 0 0 0 0 0 0 0 0 0 0 0 0 12 22 19 13 31 42 52 60 137 150 359 305
0 0 2 2 1 0 0 0 0 0 0 0 0 0 0 0 0 0 0 0 0 0 0 0 0 0 0 0 0 0 0 0 0 18 34 19 27 32 32 113 115 205 353 259 210 146 378
1 0 1 2 1 0 0 0 0 0 0 0 0 0 0 0 0 0 0 0 0 0 0 0 0 0 0 0 0 0 0 2 89 35 70 24 23 66 166 148 144 322 41 660 544 315 557
0 0 0 2 1 0 0 0 0 0 0 0 0 0 0 0 0 0 0 0 0 0 0 0 0 0 0 0 0 0 0 7 28 59 192 188 208 154 125 137 117 360 777 714 478 98 442
1 0 0 0 1 0 0 0 0 0 0 0 0 0 0 0 0 0 0 0 0 0 0 0 0 0 0 0 0 0 5 58 71 38 60 85 164 147 172 176 260 410 451 666 172 221 359
2 0 0 0 1 0 0 0 0 0 0 0 0 1 0 0 0 0 0 0 0 0 0 0 0 0 0 0 0 0 40 53 91 56 174 63 210 167 228 157 145 327 393 222 594 424 158
2 0 0 0 2 0 0 0 0 0 0 0 0 1 0 0 0 0 0 0 0 0 0 0 0 0 0 0 45 31 33 50 51 38 110 162 131 121 193 228 441 447 599 612 560 88 83
CIN
0 0 0 0 0 0 0 0 0 0 0 0 0 0 0 0 0 0 0 0 0 0 0 0 0 0 0 0 0 0 0 0 0 -405 0 0 0 0 0 0 0 0 0 0 0 0 0
0 0 0 0 0 0 0 0 -1 0 0 0 0 0 0 0 0 0 0 0 0 0 0 0 0 0 0 0 0 0 0 0 0 0 0 0 0 0 0 0 0 0 0 0 0 0 0
0 0 0 0 0 -1 -1 0 0 0 0 0 0 0 0 0 0 0 0 0 0 0 0 0 0 0 0 0 0 0 0 0 0 0 0 0 0 0 0 0 0 0 0 0 0 0 0
0 0 0 0 0 0 0 0 0 -2 0 0 0 0 0 0 0 0 0 0 0 0 0 0 0 0 0 0 0 0 0 0 0 0 0 0 0 0 0 0 0 0 0 0 0 0 0
0 0 0 0 0 0 0 0 0 0 0 0 0 0 0 0 0 0 0 0 0 0 0 0 0 0 0 0 0 0 0 0 0 0 0 0 0 0 0 0 0 0 0 0 0 0 0
0 0 0 0 0 0 0 0 0 0 0 0 0 0 0 0 0 0 0 0 0 0 0 0 0 0 0 0 0 0 0 0 0 0 0 0 0 0 0 0 0 0 0 0 0 0 0
0 0 0 0 0 0 0 0 0 0 0 0 0 0 0 0 0 0 0 0 0 0 0 0 0 0 0 0 0 0 0 0 0 0 0 0 0 0 0 0 0 0 0 0 0 0 0
0 0 0 0 0 0 0 0 0 0 0 0 0 0 0 0 0 0 0 0 0 0 0 0 0 0 0 0 0 0 0 0 0 0 0 0 0 0 0 0 0 0 0 0 0 0 0
0 0 0 0 0 0 0 0 0 0 0 0 0 0 0 0 0 0 0 0 0 0 0 0 0 0 0 0 0 0 0 0 0 0 0 0 0 0 0 0 0 0 0 0 0 0 0
0 0 0 0 0 0 0 0 0 0 0 0 0 0 0 0 0 0 0 0 0 0 0 0 0 0 0 0 0 0 0 0 0 0 0 0 0 0 0 0 0 0 0 0 0 0 0
0 0 0 0 0 0 0 0 0 0 0 0 0 0 0 0 0 0 0 0 0 0 0 0 0 0 0 0 0 0 0 0 0 0 0 0 0 0 0 0 0 0 0 0 0 0 0
0 0 0 0 0 0 0 0 0 0 0 0 0 0 0 0 0 0 0 0 0 0 0 0 0 0 0 0 0 0 0 0 0 0 0 0 0 0 0 0 0 0 0 0 0 0 0
0 0 0 0 0 0 0 0 0 0 0 0 0 0 0 0 0 0 0 0 0 0 0 0 0 0 0 0 0 0 0 0 0 0 0 0 0 0 0 0 0 0 0 0 0 0 0
0 0 0 0 0 0 0 0 0 0 0 0 0 0 0 0 0 0 0 0 0 0 0 0 0 0 0 0 0 0 0 0 0 0 0 0 0 0 0 0 0 0 0 0 0 -4 -13
0 0 0 0 0 0 0 0 0 0 0 0 0 0 0 0 0 0 0 0 0 0 0 0 0 0 0 0 0 0 0 0 0 0 0 0 0 0 0 0 0 0 0 0 -1 -14 -12
0 0 0 0 0 0 0 0 0 0 0 0 0 0 0 0 0 0 0 0 0 0 0 0 0 0 0 0 0 0 0 0 0 0 0 0 0 0 0 0 0 0 -8 -2 -12 -12 -16
0 0 0 0 0 0 0 0 0 0 0 0 0 0 0 0 0 0 0 0 0 0 0 0 0 0 0 0 0 0 0 0 0 0 0 0 0 0 0 0 -10 -9 -16 -57 -58 -13 -12
0 0 0 0 0 0 0 0 0 0 0 0 0 0 0 0 0 0 0 0 0 0 0 0 0 0 0 0 0 0 0 0 0 0 0 0 0 0 0 0 0 -8 -141 -174 -6 -64 -45
0 0 0 0 0 0 0 0 0 0 0 0 0 0 0 0 0 0 0 0 0 0 0 0 0 0 0 0 0 0 0 0 0 0 0 0 0 0 0 -2 -77 -37 -67 -6 -11 -4 -22
0 0 0 0 0 0 0 0 0 0 0 0 0 0 0 0 0 0 0 0 0 0 0 0 0 0 0 0 0 0 0 0 0 0 0 0 0 -2 0 0 0 0 0 -12 -5 -9 -34
0 0 0 0 0 0 0 0 0 0 0 0 0 0 0 0 0 0 0 0 0 0 0 0 0 0 0 0 0 0 0 0 0 0 0 0 0 -3 -4 -3 0 -9 -6 -8 -9 -6 -47
0 0 0 0 0 0 0 0 0 0 0 0 0 0 0 0 0 0 0 0 0 0 0 0 0 0 0 0 0 0 0 0 0 0 0 0 0 0 -5 0 0 -1 -32 -21 -6 -17 -4
0 0 0 0 0 0 0 0 0 0 0 0 0 0 0 0 0 0 0 0 0 0 0 0 0 0 0 0 0 0 0 0 0 0 0 -2 -3 -2 -2 -3 -23 -12 -10 -8 -14 -7 -5
0 0 0 0 0 0 0 0 0 0 0 0 0 0 0 0 0 0 0 0 0 0 0 0 0 0 0 0 0 0 0 0 0 -4 -2 -3 -2 -3 -5 -6 -8 -11 -4 -9 -24 -23 -6
0 0 0 0 0 0 0 0 0 0 0 0 0 0 0 0 0 0 0 0 0 0 0 0 0 0 0 0 0 0 0 -1 -10 -24 -2 -4 -2 -3 -2 -5 -11 -8 -132 -3 -14 -2 -23
0 0 0 0 0 0 0 0 0 0 0 0 0 0 0 0 0 0 0 0 0 0 0 0 0 0 0 0 0 0 0 -5 -3 -2 -16 -4 -5 -4 -4 -4 -3 -6 -3 -2 -27 -4 -1
0 0 0 0 0 0 0 0 0 0 0 0 0 0 0 0 0 0 0 0 0 0 0 0 0 0 0 0 0 0 -5 -5 -2 -5 -23 -2 -4 -10 -5 -3 -4 -25 -16 -27 -5 -10 -19
0 0 0 0 0 0 0 0 0 0 0 0 0 0 0 0 0 0 0 0 0 0 0 0 0 0 0 0 0 0 -5 -2 -35 -3 -4 -3 -3 -3 -2 -2 -5 -27 -14 -13 -3 -3 -22
0 0 0 0 0 0 0 0 0 0 0 0 0 -1 0 0 0 0 0 0 0 0 0 0 0 0 0 0 -6 -4 -3 -6 -3 -4 -49 -4 -3 -5 -4 -4 -2 -3 -3 -13 -7 -34 -50
Wind_Speed
25 26 27 29 30 31 32 32 32 32 32 32 32 32 31 28 26 26 26 26 26 24 22 19 15 10 6 5 7 8 7 6 7 8 8 5 2 8 13 20 25 20 24 32 37 21 18
27 28 29 30 31 32 32 32 32 32 32 31 30 28 26 26 26 27 27 27 25 24 21 16 8 8 7 7 12 9 7 7 7 9 11 11 11 12 17 19 21 32 35 38 36 37 37
28 29 30 31 31 31 32 32 32 31 31 29 27 27 27 27 28 28 28 27 25 24 21 14 7 9 5 7 13 9 8 7 9 8 6 5 8 12 8 12 5 6 10 12 21 17 19
28 29 30 30 31 31 32 31 30 29 28 27 28 28 29 30 31 31 31 28 26 21 7 14 11 8 8 14 13 6 5 6 5 4 7 6 3 5 10 16 17 12 12 13 6 12 14
28 29 29 30 30 30 30 29 29 28 28 28 29 30 31 33 33 33 31 28 23 11 10 12 12 10 12 14 10 10 7 2 3 1 2 5 5 7 6 8 10 10 13 11 17 16 16
28 28 29 29 29 29 29 29 28 28 28 30 31 32 33 33 33 32 31 23 10 17 12 11 10 12 12 17 20 12 4 5 5 5 6 6 5 8 8 9 13 12 18 14 15 20 22
28 28 28 28 29 29 29 29 30 30 31 32 33 33 33 34 34 29 29 22 16 14 8 19 19 17 18 19 14 14 13 5 3 5 5 4 8 8 9 11 14 16 21 25 33 32 24
28 28 28 29 30 30 31 32 32 33 34 34 34 34 34 33 31 26 23 20 20 20 18 14 15 16 14 17 15 14 14 12 7 8 7 7 7 13 17 18 20 24 28 22 29 29 31
28 29 29 30 31 31 32 33 34 34 34 35 35 35 35 34 28 22 22 20 22 21 14 9 15 16 17 15 18 16 15 16 15 14 13 10 17 25 20 21 26 24 22 30 32 38 35
28 29 29 30 31 32 33 34 35 35 35 35 35 35 35 32 21 25 18 22 23 19 17 13 12 14 15 18 16 15 16 19 18 17 23 21 25 26 26 24 22 17 28 27 26 26 23
29 29 30 31 32 33 34 35 35 35 35 35 35 36 35 27 24 21 21 23 23 16 18 16 14 16 17 15 22 14 17 16 17 23 19 17 27 24 21 26 28 23 33 31 31 27 29
29 29 30 32 33 34 35 36 37 37 37 37 37 37 33 19 16 21 23 24 17 15 16 15 17 19 21 12 16 19 16 12 17 18 16 16 21 19 22 27 29 30 30 27 25 25 26
29 30 31 32 33 34 35 36 37 38 38 39 39 36 26 23 21 24 23 18 17 15 16 17 18 23 20 20 18 20 18 14 20 25 27 26 20 23 21 21 25 19 19 23 20 19 23
28 29 30 32 33 34 35 36 37 38 38 38 38 33 17 19 22 23 19 18 17 18 17 20 22 20 18 22 15 20 16 14 16 25 28 26 25 26 28 26 27 23 24 22 26 22 20
28 29 30 31 33 34 35 36 37 38 39 40 37 18 16 17 19 20 20 17 20 19 20 22 21 17 16 16 18 19 16 18 20 23 26 27 23 34 25 23 24 23 18 19 18 16 21
29 29 30 30 32 34 34 35 37 38 39 38 31 22 16 18 18 18 18 19 20 20 22 19 19 18 18 20 20 20 18 17 20 26 27 26 28 28 26 30 18 27 26 19 8 14 18
28 29 29 30 32 33 34 34 36 37 39 37 24 22 17 17 18 17 17 21 19 18 20 19 19 18 18 19 20 21 19 21 20 27 29 28 23 27 26 18 27 21 14 18 37 25 23
29 29 29 29 30 32 33 34 34 35 38 29 24 22 18 17 20 17 20 17 20 19 17 19 20 20 19 21 21 20 17 20 27 28 28 29 28 24 22 22 29 20 25 30 33 34 35
29 28 27 27 28 30 31 31 32 32 32 29 24 25 17 16 20 19 17 20 20 20 18 19 19 17 20 20 21 18 20 22 26 27 27 28 23 28 21 14 22 30 32 21 24 30 10
29 28 27 27 26 27 28 28 29 29 29 26 23 23 16 16 20 21 24 23 21 16 21 20 20 21 20 19 19 20 21 24 23 26 29 22 17 17 20 22 35 20 28 31 32 35 32
30 28 26 25 25 25 25 26 26 27 27 24 18 20 21 21 18 21 21 23 22 20 15 19 20 17 20 23 23 23 24 24 27 24 25 25 20 21 19 20 23 38 40 38 37 33 31
31 28 26 25 24 24 24 24 25 26 27 20 23 23 20 23 22 24 21 22 22 22 19 22 17 21 21 23 24 28 28 26 28 29 24 25 22 19 18 12 13 10 11 40 38 40 36
31 30 26 24 23 23 22 23 22 23 22 20 20 20 21 22 22 22 23 21 21 22 23 21 25 24 22 25 29 30 32 30 25 21 22 23 20 16 15 18 21 11 20 29 25 28 34
30 30 27 24 22 21 21 22 22 22 21 23 23 22 22 26 22 23 24 22 24 23 24 25 23 23 25 29 32 30 28 24 18 20 17 19 13 13 11 14 6 16 23 22 21 27 29
30 30 29 24 22 22 22 21 21 21 21 21 22 20 22 25 24 24 23 23 25 25 24 25 26 26 26 28 28 27 28 19 21 17 16 14 12 15 8 4 10 19 25 24 21 21 25
30 30 29 26 22 21 21 20 20 21 21 22 21 21 21 23 22 24 24 23 24 24 26 23 21 21 21 23 24 21 21 27 20 19 16 16 13 11 21 4 4 17 21 23 25 25 24
30 30 29 29 23 22 22 22 21 20 18 19 20 19 21 23 29 26 22 25 24 24 24 26 22 24 15 21 21 22 24 19 22 19 19 17 15 9 14 27 17 26 31 26 25 25 29
30 30 29 29 23 22 22 22 21 19 18 17 20 18 22 27 31 29 27 27 25 23 24 21 25 16 21 21 22 23 22 20 19 17 17 23 22 25 26 29 25 30 28 24 20 23 22
29 29 28 28 23 21 22 22 21 19 16 16 22 18 20 23 28 31 28 28 24 25 27 22 24 21 20 19 21 20 21 21 21 23 25 19 21 27 25 26 27 27 23 19 20 21 21
Wind_Direction
323 322 323 323 324 325 325 324 321 319 316 316 315 314 311 302 298 295 292 290 286 278 269 256 235 206 71 118 184 50 69 52 104 141 163 159 336 327 318 319 315 319 315 303 287 303 233
324 325 325 326 327 325 323 323 321 319 317 315 310 305 300 299 296 294 292 289 282 276 267 243 193 61 57 169 14 43 59 115 141 165 177 180 191 202 224 263 308 303 299 292 299 291 286
325 327 327 327 325 322 320 318 318 316 311 304 300 299 298 298 296 293 292 287 280 273 260 229 76 66 127 165 15 43 75 110 144 148 169 176 201 212 217 221 233 237 255 256 317 317 311
327 328 327 323 323 321 319 315 309 307 303 299 297 298 299 300 300 297 296 288 281 263 172 18 41 78 56 10 5 48 136 155 135 178 201 206 222 238 229 232 237 250 253 256 287 330 330
325 326 324 322 324 319 316 312 307 302 302 301 300 300 302 304 303 300 296 289 275 348 59 49 54 70 25 32 55 35 45 120 166 151 326 321 311 256 272 267 278 285 265 289 317 320 321
321 320 320 319 315 316 315 312 307 304 303 304 306 305 305 304 303 300 298 278 46 10 49 61 54 28 26 352 343 3 39 26 6 0 352 337 284 279 263 279 254 294 313 297 301 323 310
320 321 320 317 317 317 316 314 313 311 310 310 309 309 306 305 304 297 310 344 12 22 46 340 343 342 350 349 21 21 20 59 43 357 322 315 332 283 285 282 283 288 302 302 302 303 308
317 319 319 319 320 319 318 319 318 316 316 316 314 309 308 303 298 289 308 353 358 348 351 8 358 354 3 358 4 22 26 21 20 344 332 319 272 316 318 310 303 305 303 293 302 302 298
318 320 321 322 323 322 321 321 320 318 317 316 314 312 309 303 292 320 349 356 348 346 0 15 347 346 351 3 350 357 6 355 348 342 339 325 321 320 323 316 311 305 299 302 297 299 297
317 318 320 321 322 322 322 321 321 319 316 316 315 312 311 302 343 342 356 347 343 353 347 6 11 2 359 349 347 0 359 346 343 340 331 329 323 318 317 315 309 293 306 305 303 300 294
320 321 323 323 322 322 320 319 320 318 314 314 314 312 316 341 339 347 339 334 336 355 345 357 2 355 351 347 339 352 357 351 343 334 338 333 327 327 324 319 314 311 307 306 301 298 298
323 323 324 323 322 321 321 320 321 321 318 316 315 317 319 3 1 338 330 329 347 346 338 352 348 340 339 349 344 342 350 355 347 350 338 338 334 324 326 321 315 314 314 309 301 296 284
322 322 322 322 322 321 321 321 321 322 321 317 315 313 330 338 339 332 331 344 340 337 346 344 339 333 334 337 340 343 347 353 353 348 344 336 345 338 338 337 330 320 318 315 299 292 290
324 325 325 325 324 323 323 323 321 319 318 312 306 309 347 340 332 332 337 333 329 335 337 335 332 334 341 340 349 344 350 351 4 348 341 345 340 346 336 336 335 329 319 313 308 302 302
320 322 323 325 324 325 325 326 324 322 320 317 307 353 351 354 343 334 328 327 327 332 329 331 331 340 345 348 345 348 349 343 348 347 346 341 338 327 331 335 335 333 325 317 292 289 297
316 319 321 323 324 325 325 326 324 322 320 322 330 336 339 345 346 338 327 316 325 324 325 330 332 337 336 341 343 345 347 355 345 342 342 339 332 335 333 330 335 339 327 334 314 307 302
313 316 318 320 321 322 323 325 326 325 321 320 339 333 347 345 337 328 321 326 324 329 324 327 331 330 332 335 338 338 342 340 351 342 338 337 338 337 333 335 336 341 328 328 272 316 288
309 311 314 316 319 320 321 323 325 326 323 335 332 327 347 344 324 326 319 325 323 320 327 322 324 321 326 331 332 333 338 341 340 339 341 339 337 331 330 331 324 330 329 306 283 282 281
307 310 312 315 317 319 320 322 324 328 335 333 328 320 342 334 322 320 324 318 319 318 319 323 324 327 327 328 331 337 335 335 336 338 344 340 344 336 340 342 350 300 298 234 244 254 240
305 306 308 311 314 317 320 324 325 327 332 334 330 325 333 330 318 315 317 315 316 323 315 316 317 320 321 323 325 327 328 329 335 335 339 342 338 334 328 324 316 328 299 297 292 279 293
302 303 305 308 310 314 318 321 323 324 328 333 331 326 325 318 326 319 317 314 314 315 321 320 319 315 317 319 321 322 325 328 327 335 337 336 333 331 329 323 316 295 288 286 291 292 296
299 300 301 302 305 309 313 316 319 321 321 331 322 323 325 312 315 311 310 310 308 309 313 311 313 313 318 317 320 319 321 324 325 326 332 333 326 326 325 319 316 278 303 268 278 277 296
297 298 298 300 302 303 306 309 313 316 321 327 329 322 318 316 312 310 310 308 310 314 310 307 305 310 312 316 314 312 312 315 319 323 328 332 331 329 322 334 330 311 313 301 303 305 303
295 296 295 296 297 300 302 304 306 309 308 313 319 318 315 307 308 307 310 309 305 306 304 304 310 308 306 314 313 313 314 315 318 328 335 332 336 337 328 335 307 340 320 323 325 313 299
293 292 294 292 292 295 296 298 300 303 304 306 312 313 313 305 307 307 306 305 303 303 301 300 301 301 307 309 311 317 319 322 326 337 349 350 345 341 337 321 241 330 343 310 338 331 319
292 290 289 289 288 289 292 293 295 299 299 299 305 305 306 309 309 310 305 305 304 306 302 301 306 311 310 305 308 315 321 318 331 339 343 340 342 340 314 294 213 348 352 325 315 299 329
292 288 285 286 283 283 285 287 289 294 294 296 303 306 302 301 297 301 302 302 302 300 301 301 307 308 309 302 304 306 310 324 320 328 337 336 336 314 322 243 297 318 304 300 284 297 321
291 287 283 282 280 279 281 280 283 286 288 292 302 304 296 295 289 295 295 293 294 297 297 310 304 302 302 300 300 302 309 323 325 332 331 318 311 306 302 292 301 312 298 302 310 330 337
289 285 281 278 276 276 277 276 278 278 283 288 293 305 304 297 290 298 298 295 294 293 291 299 297 304 313 307 310 312 308 315 321 317 306 311 308 297 305 303 314 312 311 322 318 321 329